Location: Ferma
(41.9500°N, 44.5167°E)
Time: 19:43:36
(UTC+00:00)

Radarsat Rocket - Pass Details

Date: 24 October 2021
Orbit: 933 x 1491 km, 100.6° (Epoch: 02 December)

Event Time Altitude Azimuth Distance (km) Brightness Sun altitude
Rises 14:25:52 0° 159° (SSE) 3,719 7.0 -4.3°
Reaches altitude 10° 14:28:13 10° 159° (SSE) 2,824 6.3 -4.7°
Maximum altitude 14:34:36 84° 71° (ENE) 1,135 4.3 -5.9°
Drops below altitude 10° 14:41:54 10° 345° (NNW) 3,216 6.8 -7.2°
Sets 14:44:43 0° 345° (NNW) 4,266 7.4 -7.7°
